This is the latest recevied weather packets stored in our database for station/object HB9FHL-13. If no packets are shown the sender has not sent any weather packets the latest 10 day(s).
| Time | Temp. | Humidity | Pressure | Rain* | Wind** | Luminosity | Snow |
|---|---|---|---|---|---|---|---|
| 1777746686 | 19.44° C | - | 1011.9 hPa | 0 mm | - | - | - |
| 1777746385 | 20° C | - | 1020.6 hPa | 0 mm | - | - | - |
| 1777746085 | 19.44° C | - | 1013.5 hPa | 0 mm | - | - | - |
| 1777745784 | 20.56° C | - | 1016.7 hPa | 0 mm | - | - | - |
| 1777745484 | 20° C | - | 1011.3 hPa | 0 mm | - | - | - |
| 1777745183 | 20° C | - | 1017.2 hPa | 0 mm | - | - | - |
| 1777744883 | 21.11° C | - | 1017.1 hPa | 0 mm | - | - | - |
| 1777744582 | 20.56° C | - | 1012 hPa | 0 mm | - | - | - |
| 1777744282 | 20° C | - | 1016.9 hPa | 0 mm | - | - | - |
| 1777743985 | 21.11° C | - | 1017.2 hPa | 0 mm | - | - | - |
| 1777743681 | 21.67° C | - | 1019.1 hPa | 0 mm | - | - | - |
| 1777743377 | 21.11° C | - | 1019.5 hPa | 0 mm | - | - | - |
| 1777743077 | 20.56° C | - | 1021.3 hPa | 0 mm | - | - | - |
| 1777742779 | 21.11° C | - | 1014.4 hPa | 0 mm | - | - | - |
| 1777742476 | 20.56° C | - | 1013.7 hPa | 0 mm | - | - | - |
| 1777742175 | 20.56° C | - | 1015.8 hPa | 0 mm | - | - | - |
| 1777741875 | 20.56° C | - | 1015.7 hPa | 0 mm | - | - | - |
| 1777741575 | 21.11° C | - | 1014.6 hPa | 0 mm | - | - | - |
| 1777741274 | 21.11° C | - | 1014.8 hPa | 0 mm | - | - | - |
| 1777740974 | 21.11° C | - | 1017.6 hPa | 0 mm | - | - | - |
| 1777740673 | 20.56° C | - | 1012.8 hPa | 0 mm | - | - | - |
| 1777740373 | 21.67° C | - | 1016.6 hPa | 0 mm | - | - | - |
| 1777740072 | 22.22° C | - | 1015.9 hPa | 0 mm | - | - | - |
| 1777739772 | 22.22° C | - | 1013.5 hPa | 0 mm | - | - | - |
| 1777739471 | 21.11° C | - | 1016.5 hPa | 0 mm | - | - | - |
* Rain since midnight (hover to see other rain measurements)
** Current wind speed in m/s (hover to see current wind gust speed)